Weather History for Millington, TN

Change the Weather History Date:

Monday, December 31, 2012

  Actual Average Record
Temperature  
Mean Temperature 38 °F -  
Max Temperature 44 °F 48 °F 73 °F (2004)
Min Temperature 33 °F 32 °F 17 °F (2001)
Degree Days  
Heating Degree Days 26    
Moisture  
Dew Point 32 °F    
Average Humidity 80    
Maximum Humidity 100    
Minimum Humidity 53    
Precipitation  
Precipitation 0.00 in - - ()
Sea Level Pressure  
Sea Level Pressure 30.22 in    
Wind  
Wind Speed 2 mph (ESE)    
Max Wind Speed 7 mph    
Max Gust Speed -    
Visibility 9 miles    
Events Rain    
Averages and records for this station are not official NWS values.
T = Trace of Precipitation, MM = Missing Value Source: NWS Daily Summary

Daily Weather History Graph

Daily Weather History Graph

Search for Another Location

Airport:

Trip Planner

Search our weather history database for the weather conditions in past years. The results will help you decide how hot, cold, wet, or windy it might be!

Date:

Astronomy

Dec. 31, 2012 Rise Set
Actual Time 7:08 AM CST 4:57 PM CST
Civil Twilight 6:40 AM CST 5:25 PM CST
Nautical Twilight 6:08 AM CST 5:57 PM CST
Astronomical Twilight 5:37 AM CST 6:28 PM CST
Moon 8:20 PM CST (12/31) 8:56 AM CST (12/31)
Length of Visible Light 10h 45m
Length of Day
9h 49m
Waning Gibbous, 90% of the Moon is Illuminated
Dec 31
Waning Gibbous
Jan 4
Last Quarter
Jan 11
New
Jan 18
First Quarter
Jan 26
Full

Hourly Weather History & Observations

Time (CST) Temp. Windchill Dew Point Humidity Pressure Visibility Wind Dir Wind Speed Gust Speed Precip Events Conditions
12:55 AM 33.8 °F - 28.4 °F 81% 30.32 in 10.0 mi Calm Calm - N/A   Clear
1:15 AM 33.8 °F 30.8 °F 28.4 °F 81% 30.32 in 10.0 mi ESE 3.5 mph - N/A   Clear
1:35 AM 33.8 °F - 28.4 °F 81% 30.32 in 10.0 mi Calm Calm - N/A   Clear
1:55 AM 33.8 °F 30.8 °F 28.4 °F 81% 30.31 in 10.0 mi ESE 3.5 mph - N/A   Mostly Cloudy
2:15 AM 33.8 °F 30.8 °F 28.4 °F 81% 30.30 in 10.0 mi ESE 3.5 mph - N/A   Overcast
2:35 AM 33.8 °F - 30.2 °F 87% 30.31 in 10.0 mi Calm Calm - N/A   Mostly Cloudy
2:55 AM 35.6 °F - 28.4 °F 75% 30.33 in 10.0 mi Calm Calm - N/A   Overcast
3:55 AM 35.6 °F - 30.2 °F 81% 30.31 in 10.0 mi Calm Calm - N/A   Overcast
4:55 AM 33.8 °F - 30.2 °F 87% 30.31 in 10.0 mi Calm Calm - N/A   Clear
5:55 AM 33.8 °F - 30.2 °F 87% 30.31 in 10.0 mi Calm Calm - N/A   Clear
6:55 AM 35.6 °F - 30.2 °F 81% 30.30 in 10.0 mi Calm Calm - N/A   Mostly Cloudy
7:55 AM 35.6 °F 32.8 °F 30.2 °F 81% 30.30 in 10.0 mi ESE 3.5 mph - N/A   Overcast
8:55 AM 37.4 °F 33.8 °F 30.2 °F 75% 30.28 in 10.0 mi SE 4.6 mph - N/A   Overcast
9:55 AM 39.2 °F 35.0 °F 30.2 °F 70% 30.26 in 10.0 mi SE 5.8 mph - N/A   Overcast
10:55 AM 44.6 °F 40.7 °F 30.2 °F 57% 30.23 in 10.0 mi Variable 6.9 mph - N/A   Overcast
11:55 AM 44.6 °F 42.2 °F 28.4 °F 53% 30.19 in 10.0 mi SE 4.6 mph - N/A   Overcast
12:55 PM 44.6 °F - 30.2 °F 57% 30.17 in 10.0 mi Calm Calm - N/A   Overcast
1:55 PM 42.8 °F 40.1 °F 35.6 °F 76% 30.12 in 7.0 mi SE 4.6 mph - N/A Rain Light Rain
2:55 PM 41.0 °F - 37.4 °F 87% 30.12 in 10.0 mi Calm Calm - N/A   Overcast
3:55 PM 41.0 °F 39.0 °F 37.4 °F 87% 30.09 in 10.0 mi NNE 3.5 mph - N/A   Overcast
4:55 PM 41.0 °F 38.0 °F 37.4 °F 87% 30.06 in 10.0 mi East 4.6 mph - N/A   Overcast
5:55 PM 41.0 °F 38.0 °F 37.4 °F 87% 30.03 in 10.0 mi East 4.6 mph - N/A   Overcast
6:55 PM 41.0 °F 39.0 °F 39.2 °F 93% 30.02 in 7.0 mi NE 3.5 mph - N/A   Overcast
7:55 PM 41.0 °F 36.4 °F 39.2 °F 93% 30.07 in 6.0 mi NNW 6.9 mph - N/A Rain Light Rain
11:55 PM 39.2 °F - 39.2 °F 100% 30.04 in 5.0 mi Calm Calm - N/A Rain Light Rain